[[{"header":{"parameterUnit":"m.s-1","parameterCategory":2,"la1":30.2991,"la2":30.254,"lo1":-89.0895,"lo2":-89.0444,"dy":0.0017,"dx":0.0017,"nx":28,"ny":28,"refTime":"2025-05-21T09:00:00:Z","depth":"0","parameterNumber":2,"parameterNumberName":"U-component_of_CURRENTS"},"data":[0,0,0,0,0,0,0,0,0,0,0,0,0,0,0,0,0,0,0,0,0,0,0,0,0,0,0,0,0,0,0,0,0,0,0,0,0,0,0,0,0,0,0,0,0,0,0,0,0,0,0,0,0,0,0,0,0,0,0.3107,0.3107,0,0.3127,0.3127,0.3127,0.3079,0.3078,0.3077,0.3076,0.3106,0.3108,0.311,0,0,0,0,0,0,0,0,0,0,0,0,0,0.3005,0.3006,0.3107,0.3107,0.3108,0.3127,0.3127,0.3127,0.308,0.3078,0.3077,0.3076,0.3105,0.3108,0.311,0,0,0,0,0,0,0,0,0,0,0,0,0,0.3035,0.3007,0.3106,0.309,0.3089,0.3127,0.3127,0.3127,0.308,0.3078,0.3077,0.3075,0.3105,0.3107,0.311,0.316,0,0,0.3118,0.312,0,0,0,0,0,0,0,0,0.3033,0.3038,0.3092,0.3091,0.309,0.3103,0.3102,0.314,0.308,0.3079,0.3076,0.3074,0.311,0.3112,0.3113,0.3161,0.3162,0.3119,0.312,0.3121,0.3122,0,0,0,0,0,0,0,0.3031,0.3037,0.311,0.3093,0.3092,0.3075,0.3077,0.3109,0.31,0.3079,0.3076,0.3087,0.3109,0.3111,0.3114,0.3163,0.3119,0.3121,0.3123,0.3124,0.328,0.3282,0,0,0,0,0,0,0.3042,0.3036,0.3109,0.3111,0.3063,0.3078,0.308,0.3097,0.3099,0.3099,0.3088,0.3084,0.3107,0.311,0.3115,0.3191,0.3121,0.3124,0.3125,0.3277,0.328,0.3283,0,0,0,0,0,0,0.304,0.3048,0.3109,0.3077,0.3084,0.3082,0.3101,0.3098,0.3103,0.3107,0.3106,0.3096,0.3106,0.3111,0.3154,0.3191,0.3125,0.3128,0.3274,0.3278,0.3282,0.3332,0,0,0,0,0,0,0.3037,0.3048,0.3065,0.3078,0.3086,0.3144,0.3103,0.31,0.3114,0.3109,0.3115,0.3115,0.3105,0.3151,0.3157,0.3193,0.313,0.3271,0.3276,0.3281,0.3327,0.3337,0.3346,0,0,0,0,0,0.3033,0.3072,0.3066,0.3075,0.311,0.3146,0.3149,0.3138,0.3116,0.3133,0.3134,0.3115,0.3185,0.3155,0.3162,0.32,0.3269,0.3275,0.328,0.3323,0.3335,0.3345,0,0,0,0,0,0,0.3053,0.3071,0.3065,0.3111,0.3131,0.314,0.3158,0.3151,0.3164,0.3155,0.3147,0.315,0.3207,0.3204,0.3171,0.3262,0.3225,0.3232,0.3255,0.3267,0.3276,0.3294,0.3132,0,0,0,0,0,0.3064,0.3089,0.3107,0.3148,0.3155,0.3157,0.3171,0.3164,0.3178,0.318,0.3187,0.3202,0.3239,0.325,0.3281,0.3329,0.3335,0.336,0.3369,0.3377,0.34,0.3445,0.3459,0.3302,0.3302,0.3302,0,0,0.3082,0.3101,0.3113,0.3152,0.316,0.3186,0.316,0.3187,0.3212,0.3186,0.3224,0.3242,0.3263,0.3316,0.334,0.3313,0.3424,0.3384,0.339,0.3409,0.3452,0.3467,0.3481,0.3306,0.3305,0.3304,0,0,0.3129,0.3147,0.3172,0.3189,0.3212,0.322,0.3232,0.3246,0.3252,0.3288,0.329,0.3333,0.3363,0.3398,0.3416,0.3502,0.3479,0.3506,0.3556,0.36,0.3613,0.3624,0.3637,0.3649,0.3499,0.3499,0.35,0,0.3141,0.3184,0.319,0.3218,0.3235,0.3237,0.3265,0.3287,0.3315,0.3333,0.3305,0.3387,0.3407,0.3491,0.3522,0.3524,0.3529,0.3504,0.361,0.3622,0.3632,0.3643,0.3655,0.3503,0.3502,0.3502,0.3502,0,0.3201,0.3229,0.3251,0.328,0.3304,0.3334,0.3356,0.3385,0.3383,0.3396,0.3465,0.3493,0.3534,0.3558,0.3565,0.3667,0.3639,0.3621,0.3574,0.3651,0.3657,0.3669,0.3507,0.3506,0.3505,0.3504,0,0,0.3215,0.3276,0.3277,0.3287,0.3332,0.3349,0.341,0.3457,0.3481,0.3514,0.3562,0.3639,0.364,0.3667,0.3688,0.3738,0.3821,0.3716,0.3717,0.3716,0.3896,0.379,0.3792,0.3811,0.3814,0.3817,0.3862,0,0.3246,0.3307,0.333,0.3373,0.3398,0.3418,0.3466,0.3508,0.3535,0.3586,0.3636,0.3689,0.3684,0.3706,0.3761,0.383,0.3859,0.3809,0.3834,0.3835,0.3722,0.3806,0.3647,0.3667,0.3874,0.3876,0.3877,0,0.3279,0.3313,0.337,0.3402,0.341,0.3436,0.3489,0.3531,0.3613,0.3634,0.3697,0.373,0.3849,0.3808,0.3936,0.3901,0.3905,0.3933,0.3934,0.3831,0.3754,0.363,0.3681,0.3647,0.3896,0.3895,0.3893,0,0.3279,0.3326,0.3371,0.3386,0.3437,0.3454,0.3476,0.3542,0.3569,0.3676,0.3705,0.3818,0.3872,0.3937,0.3991,0.3972,0.4101,0.4067,0.3965,0.3955,0.3826,0.38,0.3838,0.4126,0.4126,0.4126,0.4125,0,0.3308,0.3328,0.3364,0.3386,0.3399,0.3437,0.3459,0.3507,0.3577,0.3617,0.3722,0.3776,0.3908,0.3985,0.4023,0.404,0.4114,0.4001,0.3976,0.3836,0.3812,0.3778,0.3766,0.4127,0.4127,0.4127,0.4126,0,0.3315,0.3351,0.3375,0.3408,0.3405,0.3409,0.342,0.3435,0.3521,0.3588,0.3629,0.377,0.3875,0.3968,0.408,0.4054,0.3994,0.4062,0.3876,0.3829,0.3679,0.3674,0.3525,0.3442,0.3971,0.3969,0.3967,0,0.3333,0.3357,0.3367,0.3348,0.3356,0.3354,0.3346,0.3403,0.3422,0.3567,0.3599,0.3732,0.3797,0.3921,0.393,0.3964,0.3892,0.3802,0.3738,0.3673,0.3652,0.351,0.3443,0.3585,0.358,0.3576,0.3573,0,0.3344,0.3347,0.3358,0.3312,0.3286,0.3263,0.3262,0.327,0.3355,0.3418,0.3514,0.359,0.37,0.3684,0.3718,0.3712,0.3642,0.3718,0.3717,0.3416,0.3202,0.3108,0.3542,0.3538,0.3542,0.3544,0.3546,0.3547,0.3319,0.331,0.3296,0.3237,0.3202,0.3155,0.3111,0.3131,0.3146,0.3188,0.334,0.3368,0.3465,0.3495,0.3474,0.3372,0.337,0.3289,0.3308,0.3186,0.3044,0.3386,0.3309,0.3311,0.3312,0.3314,0.3316,0,0.3252,0.324,0.3204,0.3119,0.3037,0.3056,0.3027,0.2966,0.2936,0.2992,0.3031,0.3085,0.3074,0.314,0.3123,0.3015,0.2877,0.2955,0.2765,0.2738,0.3112,0.3037,0.2817,0.2817,0.2817,0.2817,0.2817,0.2817,0.3205,0.3154,0.3126,0.2958,0.2901,0.2771,0.2737,0.2679,0.2669,0.2597,0.2587,0.2646,0.2879,0.2977,0.2892,0.281,0.2667,0.2491,0.2555,0.289,0.2924,0.2956,0.2885,0.2637,0.2637,0.2043,0.2039,0.2036]},{"header":{"parameterUnit":"m.s-1","parameterCategory":2,"la1":30.2991,"la2":30.254,"lo1":-89.0895,"lo2":-89.0444,"dy":0.0017,"dx":0.0017,"nx":28,"ny":28,"refTime":"2025-05-21T09:00:00:Z","depth":"0","parameterNumber":3,"parameterNumberName":"V-component_of_CURRENTS"},"data":[0,0,0,0,0,0,0,0,0,0,0,0,0,0,0,0,0,0,0,0,0,0,0,0,0,0,0,0,0,0,0,0,0,0,0,0,0,0,0,0,0,0,0,0,0,0,0,0,0,0,0,0,0,0,0,0,0,0,0.0388,0.0387,0,0.0354,0.0353,0.0353,0.035,0.035,0.035,0.0351,0.03,0.0298,0.0297,0,0,0,0,0,0,0,0,0,0,0,0,0,0.0377,0.0378,0.0388,0.0387,0.0387,0.0354,0.0353,0.0353,0.035,0.035,0.035,0.0351,0.03,0.0299,0.0297,0,0,0,0,0,0,0,0,0,0,0,0,0,0.0368,0.0378,0.0388,0.038,0.0379,0.0354,0.0353,0.0353,0.035,0.035,0.035,0.0351,0.0301,0.0299,0.0296,0.0277,0,0,0.0289,0.0288,0,0,0,0,0,0,0,0,0.0369,0.0369,0.0382,0.038,0.0379,0.0355,0.0331,0.0326,0.035,0.0363,0.0351,0.0351,0.0315,0.0312,0.0308,0.0274,0.0272,0.0289,0.0288,0.0287,0.0286,0,0,0,0,0,0,0,0.0369,0.037,0.0376,0.0381,0.0379,0.0352,0.0352,0.033,0.0339,0.0362,0.0361,0.0354,0.0315,0.031,0.0306,0.0271,0.0289,0.0287,0.0286,0.0285,0.0266,0.0267,0,0,0,0,0,0,0.0374,0.0371,0.0377,0.0375,0.0372,0.0353,0.0352,0.0364,0.034,0.0336,0.0354,0.0354,0.0314,0.0309,0.0304,0.0327,0.0287,0.0285,0.0283,0.0265,0.0266,0.0267,0,0,0,0,0,0,0.0374,0.0375,0.0379,0.0369,0.0368,0.0353,0.0365,0.0363,0.0361,0.0333,0.033,0.0354,0.0314,0.0308,0.0301,0.0323,0.0284,0.0282,0.0264,0.0265,0.0267,0.0341,0,0,0,0,0,0,0.0374,0.0376,0.0387,0.0371,0.0368,0.0376,0.0365,0.0362,0.0355,0.0355,0.0332,0.0328,0.0313,0.0304,0.0299,0.0319,0.028,0.0263,0.0265,0.0266,0.0338,0.0345,0.0351,0,0,0,0,0,0.0374,0.0386,0.0388,0.0388,0.0384,0.0377,0.0374,0.0364,0.0355,0.0361,0.0349,0.0328,0.0311,0.0303,0.0296,0.0317,0.0262,0.0264,0.0266,0.0335,0.0344,0.0351,0,0,0,0,0,0,0.0389,0.0386,0.0388,0.0401,0.0395,0.0376,0.0373,0.0365,0.0359,0.0359,0.0334,0.0329,0.0333,0.0311,0.0303,0.0316,0.0285,0.0285,0.0339,0.0347,0.0354,0.0377,0.0278,0,0,0,0,0,0.0397,0.0407,0.0399,0.041,0.0406,0.039,0.0384,0.0381,0.0369,0.0367,0.035,0.0337,0.0334,0.033,0.0318,0.0319,0.0292,0.0329,0.0335,0.0341,0.0356,0.0335,0.0342,0.0274,0.0274,0.0274,0,0,0.0408,0.0404,0.0413,0.0413,0.0405,0.0419,0.0388,0.0385,0.0405,0.0361,0.0376,0.0355,0.0338,0.035,0.0349,0.0335,0.0344,0.0344,0.0349,0.0361,0.0338,0.0345,0.0351,0.0275,0.0275,0.0274,0,0,0.0427,0.043,0.0443,0.0445,0.0437,0.0434,0.0435,0.0421,0.0423,0.0427,0.0412,0.0409,0.0387,0.0395,0.0393,0.0426,0.0379,0.0415,0.047,0.0451,0.0456,0.0461,0.0427,0.0427,0.0421,0.0421,0.0421,0,0.0442,0.0466,0.0445,0.0459,0.0476,0.0446,0.0478,0.0472,0.0461,0.0477,0.0443,0.044,0.0417,0.0453,0.0466,0.0444,0.0414,0.0442,0.046,0.0464,0.0467,0.0431,0.0431,0.0425,0.0425,0.0424,0.0424,0,0.0469,0.0498,0.0503,0.0526,0.0537,0.0556,0.0554,0.0564,0.0553,0.0554,0.057,0.0533,0.0537,0.0526,0.0503,0.0528,0.0492,0.0469,0.0441,0.0479,0.0438,0.0437,0.0431,0.0429,0.0428,0.0427,0,0,0.0489,0.0522,0.0526,0.0566,0.0582,0.0601,0.0634,0.067,0.0707,0.0674,0.072,0.0694,0.0664,0.066,0.0625,0.0605,0.0592,0.0549,0.0546,0.0518,0.0533,0.0502,0.0497,0.0565,0.0565,0.0566,0.0491,0,0.0526,0.058,0.0588,0.0664,0.0702,0.0711,0.0754,0.0781,0.0785,0.0815,0.0779,0.08,0.0718,0.0723,0.0686,0.0633,0.0593,0.0613,0.0498,0.0494,0.0466,0.0497,0.0494,0.0428,0.0489,0.0489,0.0489,0,0.0557,0.0595,0.067,0.0762,0.078,0.082,0.0902,0.0937,0.0968,0.0971,0.0969,0.0935,0.0922,0.0832,0.0736,0.0749,0.0643,0.0578,0.0573,0.0522,0.0463,0.0401,0.0422,0.0301,0.0486,0.0487,0.0487,0,0.0586,0.0665,0.0735,0.0762,0.0841,0.0889,0.0937,0.0986,0.1036,0.1074,0.1112,0.1066,0.1057,0.0935,0.0783,0.0762,0.066,0.0615,0.048,0.0475,0.0442,0.0434,0.0339,0.0525,0.0525,0.0525,0.0525,0,0.0629,0.0687,0.0756,0.0794,0.0896,0.0938,0.1039,0.1079,0.1145,0.1233,0.119,0.1235,0.1079,0.0999,0.0835,0.0663,0.0692,0.05,0.0463,0.0466,0.0462,0.0328,0.0256,0.0522,0.0523,0.0524,0.0524,0,0.0644,0.0686,0.0775,0.0871,0.0909,0.098,0.1101,0.1174,0.1233,0.1345,0.1368,0.1362,0.1276,0.1096,0.0911,0.0744,0.0498,0.0495,0.0503,0.0468,0.0238,0.0171,0.0032,-0.0033,0.0352,0.0351,0.035,0,0.0649,0.0695,0.0816,0.088,0.0926,0.1032,0.1112,0.1201,0.1291,0.143,0.1496,0.1461,0.1454,0.1173,0.0885,0.0605,0.0458,0.0401,0.0361,0.0237,0.0134,0.0089,0.0041,0.0334,0.0333,0.0332,0.0332,0,0.0668,0.0711,0.079,0.0916,0.1013,0.1127,0.1255,0.1344,0.1476,0.1587,0.1719,0.1732,0.1483,0.1226,0.0841,0.0633,0.0325,0.0375,0.0251,0.0122,0.0064,-0.0019,0.0358,0.0325,0.0325,0.0326,0.0326,0.0326,0.0681,0.0743,0.0851,0.0975,0.1087,0.1234,0.1355,0.1506,0.1679,0.1874,0.186,0.191,0.1535,0.103,0.0733,0.0245,0.0253,0.0098,0.0027,-0.0007,-0.0067,0.0293,0.0217,0.0218,0.0218,0.0218,0.0218,0,0.0706,0.0791,0.0907,0.1069,0.1198,0.1253,0.1464,0.161,0.1843,0.1967,0.207,0.1916,0.1442,0.0969,0.033,-0.0017,-0.0153,-0.0205,-0.0268,-0.0301,0.0022,0.0025,-0.0098,-0.0098,-0.0098,-0.0098,-0.0098,-0.0097,0.0732,0.0844,0.0914,0.1133,0.1252,0.1452,0.1588,0.1815,0.1964,0.2142,0.2175,0.2172,0.1859,0.0654,-0.01,-0.0281,-0.0503,-0.0584,-0.0679,-0.0457,-0.0434,-0.0412,-0.0425,-0.064,-0.0641,-0.0959,-0.0963,-0.0965]}],[{"header":{"parameterUnit":"m.s-1","parameterCategory":2,"la1":30.2991,"la2":30.254,"lo1":-89.0895,"lo2":-89.0444,"dy":0.0017,"dx":0.0017,"nx":28,"ny":28,"refTime":"2025-05-21T09:00:00:Z","depth":"2","parameterNumber":2,"parameterNumberName":"U-component_of_CURRENTS"},"data":[0,0,0,0,0,0,0,0,0,0,0,0,0,0,0,0,0,0,0,0,0,0,0,0,0,0,0,0,0,0,0,0,0,0,0,0,0,0,0,0,0,0,0,0,0,0,0,0,0,0,0,0,0,0,0,0,0,0,0.2951,0.2951,0,0.2971,0.2971,0.2971,0.2928,0.2927,0.2926,0.2925,0.2957,0.2959,0.2961,0,0,0,0,0,0,0,0,0,0,0,0,0,0.2846,0.2848,0.295,0.2951,0.2952,0.2971,0.2971,0.2971,0.2928,0.2927,0.2926,0.2925,0.2957,0.2959,0.2961,0,0,0,0,0,0,0,0,0,0,0,0,0,0.2877,0.2849,0.295,0.2936,0.2936,0.2971,0.2971,0.2971,0.2929,0.2927,0.2926,0.2924,0.2956,0.2959,0.2961,0.3007,0,0,0.2969,0.2971,0,0,0,0,0,0,0,0,0.2876,0.2881,0.2938,0.2937,0.2937,0.295,0.2946,0.2985,0.2929,0.2926,0.2925,0.2924,0.296,0.2962,0.2963,0.3009,0.301,0.297,0.2971,0.2972,0.2973,0,0,0,0,0,0,0,0.2873,0.2879,0.2954,0.2939,0.2938,0.292,0.2922,0.2953,0.2948,0.2927,0.2925,0.2935,0.2959,0.296,0.2963,0.301,0.297,0.2972,0.2974,0.2975,0.3132,0.3134,0,0,0,0,0,0,0.2884,0.2878,0.2953,0.2955,0.2907,0.2923,0.2926,0.2943,0.2947,0.2948,0.2936,0.2933,0.2956,0.296,0.2964,0.305,0.2972,0.2975,0.2976,0.3129,0.3133,0.3135,0,0,0,0,0,0,0.2882,0.2891,0.2953,0.292,0.2927,0.2927,0.2947,0.2944,0.2958,0.2955,0.2954,0.2954,0.2955,0.2961,0.3008,0.3049,0.2976,0.2979,0.3126,0.313,0.3134,0.3201,0,0,0,0,0,0,0.2879,0.289,0.2913,0.2921,0.2929,0.2992,0.2949,0.2946,0.2968,0.2964,0.2971,0.2971,0.2955,0.3004,0.3011,0.3052,0.2981,0.3123,0.3128,0.3133,0.3195,0.3207,0.3216,0,0,0,0,0,0.2875,0.2907,0.2914,0.2924,0.2959,0.2995,0.2998,0.2988,0.2971,0.2992,0.2993,0.2971,0.3039,0.3009,0.3016,0.3058,0.3121,0.3127,0.3132,0.3191,0.3204,0.3216,0,0,0,0,0,0,0.2886,0.2906,0.2914,0.2955,0.2985,0.2989,0.3006,0.3007,0.3024,0.3018,0.3006,0.3008,0.307,0.3062,0.3029,0.312,0.3077,0.3085,0.3119,0.3132,0.3142,0.3158,0.2983,0,0,0,0,0,0.2901,0.2927,0.2951,0.2993,0.3002,0.3011,0.3026,0.3026,0.304,0.3045,0.3053,0.3066,0.31,0.3112,0.314,0.319,0.3181,0.3224,0.3234,0.3242,0.3262,0.3285,0.3299,0.3154,0.3154,0.3154,0,0,0.2921,0.2938,0.2955,0.2998,0.3009,0.3034,0.3015,0.3047,0.3078,0.305,0.3095,0.3113,0.3126,0.318,0.3206,0.3175,0.3278,0.325,0.3257,0.3272,0.3293,0.3307,0.3319,0.3158,0.3158,0.3157,0,0,0.2962,0.2986,0.301,0.3029,0.306,0.307,0.3087,0.3108,0.3124,0.317,0.3168,0.3217,0.3245,0.3275,0.3289,0.3381,0.3342,0.3385,0.3439,0.3461,0.3473,0.3483,0.3478,0.3487,0.3378,0.3379,0.3379,0,0.2977,0.3023,0.3029,0.305,0.3074,0.3088,0.3121,0.3147,0.3187,0.3215,0.319,0.3274,0.3293,0.3373,0.3404,0.3406,0.3395,0.3384,0.3473,0.3483,0.3492,0.3484,0.3493,0.3382,0.3382,0.3382,0.3381,0,0.3017,0.3063,0.308,0.3109,0.3137,0.3174,0.3203,0.3243,0.3258,0.3278,0.3361,0.3389,0.343,0.3456,0.3457,0.3548,0.3511,0.3488,0.3434,0.351,0.3497,0.3505,0.3388,0.3387,0.3386,0.3385,0,0,0.3014,0.3092,0.3098,0.3125,0.3171,0.3192,0.3257,0.332,0.3353,0.34,0.346,0.3538,0.3545,0.3567,0.3586,0.3621,0.3681,0.3586,0.3585,0.3568,0.3706,0.3551,0.3544,0.3661,0.3663,0.3665,0.3666,0,0.3044,0.3108,0.314,0.3203,0.3234,0.3268,0.332,0.3374,0.3415,0.3475,0.3534,0.3592,0.3587,0.3613,0.3653,0.3704,0.3708,0.3682,0.3647,0.3647,0.3488,0.3551,0.331,0.3279,0.3673,0.3675,0.3675,0,0.3043,0.3105,0.3179,0.325,0.3261,0.3296,0.3367,0.3415,0.3503,0.3535,0.3603,0.3639,0.3751,0.3705,0.3795,0.3774,0.3743,0.3751,0.375,0.359,0.3507,0.3272,0.3279,0.3689,0.3688,0.3687,0.3686,0,0.3021,0.3107,0.3177,0.3199,0.329,0.3325,0.336,0.3433,0.3468,0.358,0.3613,0.3723,0.3777,0.3805,0.3824,0.3814,0.3879,0.3855,0.3672,0.366,0.3443,0.3407,0.3864,0.3864,0.3864,0.3864,0.3864,0,0.3014,0.3087,0.3167,0.3211,0.3259,0.331,0.3353,0.3411,0.3486,0.3526,0.3634,0.3683,0.3801,0.3846,0.3848,0.379,0.3883,0.3698,0.3658,0.3457,0.3424,0.3771,0.3761,0.3864,0.3864,0.3864,0.3864,0,0.3002,0.3074,0.3145,0.3235,0.3255,0.3276,0.3322,0.3344,0.3433,0.3498,0.3539,0.3676,0.3733,0.3793,0.3846,0.3787,0.3771,0.3694,0.3439,0.3369,0.3531,0.3524,0.3527,0.3522,0.3517,0.3513,0.351,0,0.302,0.3052,0.3125,0.3142,0.3191,0.3223,0.3237,0.331,0.3332,0.3469,0.3497,0.3592,0.3594,0.362,0.3569,0.3515,0.3621,0.3241,0.3179,0.3539,0.3501,0.3502,0.3501,0.2921,0.2913,0.2907,0.2902,0,0.3038,0.3051,0.3089,0.31,0.3117,0.313,0.3162,0.3169,0.3257,0.329,0.3345,0.3363,0.3377,0.3228,0.3158,0.3102,0.3251,0.3105,0.3565,0.3031,0.2964,0.2928,0.2948,0.2845,0.2851,0.2855,0.2858,0.286,0.302,0.3013,0.3017,0.3006,0.3028,0.3023,0.2991,0.299,0.2974,0.2965,0.3106,0.3016,0.3033,0.2783,0.2684,0.263,0.2834,0.2747,0.2768,0.2796,0.2714,0.2641,0.2446,0.2449,0.2452,0.2454,0.2456,0,0.2951,0.2948,0.2925,0.2904,0.2876,0.293,0.292,0.2815,0.2706,0.2712,0.2673,0.2425,0.2293,0.232,0.2134,0.2103,0.2107,0.2041,0.2058,0.2115,0.2166,0.2054,0.1609,0.1606,0.1604,0.1601,0,0,0.2906,0.285,0.2802,0.2721,0.2741,0.2657,0.2628,0.2444,0.2372,0.2171,0.2083,0.2188,0.2254,0.1909,0.1858,0.1714,0.1904,0.1643,0.2328,0.2408,0.2455,0.2581,0.2472,0,0,0,0,0]},{"header":{"parameterUnit":"m.s-1","parameterCategory":2,"la1":30.2991,"la2":30.254,"lo1":-89.0895,"lo2":-89.0444,"dy":0.0017,"dx":0.0017,"nx":28,"ny":28,"refTime":"2025-05-21T09:00:00:Z","depth":"2","parameterNumber":3,"parameterNumberName":"V-component_of_CURRENTS"},"data":[0,0,0,0,0,0,0,0,0,0,0,0,0,0,0,0,0,0,0,0,0,0,0,0,0,0,0,0,0,0,0,0,0,0,0,0,0,0,0,0,0,0,0,0,0,0,0,0,0,0,0,0,0,0,0,0,0,0,0.0271,0.027,0,0.0233,0.0233,0.0232,0.023,0.023,0.0231,0.0231,0.0182,0.018,0.0179,0,0,0,0,0,0,0,0,0,0,0,0,0,0.0255,0.0256,0.0271,0.027,0.027,0.0233,0.0233,0.0232,0.023,0.023,0.0231,0.0231,0.0182,0.0181,0.0179,0,0,0,0,0,0,0,0,0,0,0,0,0,0.0245,0.0256,0.0271,0.0263,0.0262,0.0233,0.0233,0.0232,0.023,0.023,0.0231,0.0231,0.0183,0.0181,0.0178,0.0153,0,0,0.0171,0.017,0,0,0,0,0,0,0,0,0.0246,0.0246,0.0265,0.0264,0.0262,0.0236,0.0209,0.0205,0.023,0.0243,0.0231,0.0232,0.0198,0.0194,0.0188,0.0151,0.0148,0.0171,0.0169,0.0168,0.0167,0,0,0,0,0,0,0,0.0247,0.0247,0.0257,0.0264,0.0263,0.0232,0.0233,0.0208,0.0219,0.0242,0.0241,0.0236,0.0197,0.019,0.0186,0.0148,0.0171,0.0169,0.0167,0.0166,0.0141,0.0141,0,0,0,0,0,0,0.0254,0.0248,0.0258,0.0255,0.0254,0.0233,0.0233,0.0245,0.0219,0.0215,0.0235,0.0236,0.0194,0.0189,0.0185,0.0214,0.0168,0.0166,0.0164,0.014,0.0141,0.0142,0,0,0,0,0,0,0.0254,0.0256,0.0259,0.0249,0.0247,0.0233,0.0246,0.0244,0.0246,0.0214,0.021,0.0241,0.0194,0.0188,0.0183,0.021,0.0165,0.0163,0.0139,0.014,0.0141,0.0234,0,0,0,0,0,0,0.0254,0.0256,0.027,0.025,0.0248,0.0259,0.0245,0.0242,0.024,0.0241,0.0217,0.0213,0.0194,0.0187,0.018,0.0206,0.0161,0.0138,0.0139,0.0141,0.023,0.0238,0.0245,0,0,0,0,0,0.0254,0.0262,0.0272,0.0273,0.0268,0.0259,0.0256,0.0246,0.024,0.0249,0.0236,0.0214,0.0192,0.0185,0.0178,0.0203,0.0137,0.0139,0.0141,0.0226,0.0236,0.0245,0,0,0,0,0,0,0.0263,0.0262,0.0272,0.0282,0.0282,0.0259,0.0256,0.0251,0.0246,0.0248,0.0219,0.0214,0.0222,0.0194,0.0188,0.0199,0.0162,0.0162,0.0229,0.0238,0.0246,0.0269,0.0159,0,0,0,0,0,0.0273,0.0284,0.0279,0.0292,0.0289,0.0277,0.0271,0.0271,0.0259,0.0258,0.0241,0.0225,0.022,0.0216,0.0201,0.0201,0.0166,0.0212,0.022,0.0227,0.024,0.0207,0.0213,0.0147,0.0147,0.0147,0,0,0.0286,0.0282,0.0292,0.0295,0.0289,0.0303,0.0276,0.0275,0.0299,0.0251,0.027,0.0249,0.0225,0.0236,0.0237,0.0219,0.0226,0.0229,0.0235,0.0245,0.0209,0.0216,0.0222,0.0149,0.0148,0.0148,0,0,0.03,0.0308,0.032,0.0324,0.0322,0.032,0.0325,0.0314,0.0321,0.033,0.0312,0.0313,0.0287,0.0291,0.0286,0.0323,0.0267,0.0311,0.037,0.0338,0.0343,0.0347,0.0308,0.0308,0.0315,0.0316,0.0316,0,0.0317,0.0342,0.0322,0.0334,0.0356,0.0334,0.0369,0.0364,0.0359,0.0381,0.0349,0.0346,0.0321,0.0355,0.0368,0.0344,0.0305,0.034,0.0349,0.0352,0.0355,0.0313,0.0312,0.032,0.032,0.0319,0.0319,0,0.0334,0.0371,0.0374,0.04,0.0415,0.0439,0.0442,0.0457,0.0456,0.0462,0.0486,0.0447,0.045,0.044,0.0413,0.0433,0.0392,0.0363,0.0329,0.0368,0.0321,0.0318,0.0327,0.0325,0.0324,0.0323,0,0,0.0345,0.0386,0.0394,0.0444,0.0465,0.0486,0.0524,0.0569,0.0611,0.0587,0.0641,0.0615,0.0588,0.058,0.0543,0.0514,0.0494,0.0448,0.0444,0.0415,0.041,0.0359,0.035,0.0457,0.0457,0.0457,0.0368,0,0.0381,0.0438,0.0452,0.0541,0.0584,0.0602,0.0648,0.0683,0.0696,0.0731,0.0701,0.0724,0.0642,0.0649,0.0605,0.054,0.049,0.052,0.0371,0.0367,0.0323,0.0347,0.0348,0.0267,0.0365,0.0364,0.0364,0,0.0395,0.0449,0.0536,0.065,0.067,0.0717,0.0812,0.0851,0.0886,0.0895,0.0897,0.0864,0.0848,0.0755,0.0641,0.0659,0.0536,0.0461,0.0455,0.0376,0.0312,0.0244,0.0257,0.0358,0.0359,0.0359,0.036,0,0.0415,0.0514,0.0601,0.0634,0.0736,0.0795,0.0851,0.0905,0.0959,0.1001,0.104,0.0995,0.0985,0.0844,0.0674,0.0658,0.0523,0.0484,0.0316,0.031,0.0268,0.0258,0.0371,0.0371,0.0372,0.0372,0.0372,0,0.0441,0.0527,0.0621,0.0673,0.0796,0.0846,0.096,0.1006,0.1074,0.1161,0.1122,0.1162,0.1001,0.0903,0.0722,0.0516,0.0551,0.0334,0.0289,0.0298,0.0293,0.0338,0.0335,0.0369,0.0369,0.037,0.037,0,0.0447,0.0508,0.0626,0.0755,0.0805,0.0887,0.1028,0.1103,0.1164,0.1274,0.1297,0.1289,0.1171,0.0974,0.0759,0.0591,0.0397,0.0295,0.0314,0.0273,0.0192,0.0195,0.013,0.0128,0.0126,0.0124,0.0123,0,0.0457,0.051,0.0667,0.0749,0.0818,0.0943,0.1035,0.1131,0.1222,0.1353,0.1417,0.1355,0.1301,0.0975,0.0678,0.036,0.0331,0.0162,0.0133,0.0207,0.017,0.0176,0.0182,0.0108,0.0107,0.0105,0.0104,0,0.0489,0.0538,0.0633,0.0788,0.0907,0.1038,0.1183,0.1272,0.1403,0.1493,0.1594,0.1563,0.1267,0.0964,0.0544,0.0333,0.0224,0.0127,0.0207,0.017,0.0179,0.0145,0.0152,0.0094,0.0095,0.0096,0.0096,0.0097,0.0515,0.0581,0.0698,0.0849,0.0984,0.1148,0.1275,0.1409,0.1561,0.1708,0.168,0.1623,0.1302,0.0744,0.0413,0.0093,0.0112,-0.0001,0.0006,0.0013,0.0028,0.0032,-0.0078,-0.0078,-0.0078,-0.0078,-0.0078,0,0.0548,0.0639,0.0765,0.0956,0.1102,0.1171,0.1391,0.1509,0.1691,0.1742,0.1774,0.144,0.1093,0.0736,0.0245,-0.005,-0.006,-0.0137,-0.0075,-0.0063,-0.0053,-0.0039,-0.0165,-0.0165,-0.0166,-0.0167,0,0,0.0578,0.0699,0.0767,0.1022,0.1163,0.138,0.1518,0.166,0.1745,0.1776,0.1715,0.1586,0.1167,0.0794,0.0394,0.0127,0.0102,0.0065,0.0161,0.0292,0.0306,0.0045,0.0081,0,0,0,0,0]}],[{"header":{"parameterUnit":"m.s-1","parameterCategory":2,"la1":30.2991,"la2":30.254,"lo1":-89.0895,"lo2":-89.0444,"dy":0.0017,"dx":0.0017,"nx":28,"ny":28,"refTime":"2025-05-21T09:00:00:Z","depth":"4","parameterNumber":2,"parameterNumberName":"U-component_of_CURRENTS"},"data":[0,0,0,0,0,0,0,0,0,0,0,0,0,0,0,0,0,0,0,0,0,0,0,0,0,0,0,0,0,0,0,0,0,0,0,0,0,0,0,0,0,0,0,0,0,0,0,0,0,0,0,0,0,0,0,0,0,0,0.0353,0.0353,0,0.0491,0.0493,0.0496,0.0698,0.0701,0.0703,0.0705,0.0731,0.0729,0.0727,0,0,0,0,0,0,0,0,0,0,0,0,0,0.0206,0.0209,0.0353,0.0353,0.0354,0.049,0.0493,0.0496,0.0698,0.0701,0.0704,0.0707,0.0731,0.0729,0.0727,0,0,0,0,0,0,0,0,0,0,0,0,0,0.031,0.021,0.0353,0.0463,0.0473,0.049,0.0494,0.0497,0.0697,0.0701,0.0704,0.0708,0.0732,0.0729,0.0727,0.0636,0,0,0.0719,0.0718,0,0,0,0,0,0,0,0,0.0304,0.0317,0.0446,0.0455,0.0467,0.0571,0.0451,0.0534,0.0696,0.0624,0.0705,0.071,0.0656,0.0661,0.0696,0.0638,0.0639,0.0719,0.0718,0.0717,0.0716,0,0,0,0,0,0,0,0.0296,0.0311,0.0419,0.0446,0.0459,0.0484,0.0505,0.0468,0.0624,0.063,0.0643,0.0639,0.0664,0.0698,0.0697,0.0639,0.0719,0.0717,0.0715,0.0715,0.0752,0.0754,0,0,0,0,0,0,0.0256,0.0305,0.0414,0.0422,0.038,0.0484,0.0507,0.0543,0.0627,0.0641,0.0635,0.0648,0.07,0.07,0.0699,0.0734,0.0717,0.0714,0.0713,0.0749,0.0752,0.0755,0,0,0,0,0,0,0.0253,0.0266,0.0408,0.0355,0.0374,0.0481,0.052,0.0543,0.0631,0.063,0.0646,0.0704,0.0703,0.0702,0.0739,0.0731,0.0713,0.0711,0.0746,0.075,0.0753,0.0715,0,0,0,0,0,0,0.0249,0.0265,0.0301,0.0353,0.0375,0.0456,0.0516,0.0543,0.0614,0.0634,0.0691,0.0696,0.0706,0.0743,0.0737,0.0727,0.0709,0.0743,0.0748,0.0752,0.0713,0.0716,0.072,0,0,0,0,0,0.0244,0.025,0.0303,0.0316,0.0414,0.0455,0.0472,0.0565,0.0614,0.0659,0.0715,0.0697,0.0769,0.0742,0.0734,0.0724,0.0741,0.0747,0.0752,0.0711,0.0716,0.072,0,0,0,0,0,0,0.0205,0.0272,0.0331,0.0363,0.0427,0.0486,0.0512,0.0577,0.0659,0.0684,0.0707,0.0715,0.0748,0.0753,0.0723,0.0762,0.0758,0.0762,0.073,0.0734,0.0738,0.0794,0.0707,0,0,0,0,0,0.0207,0.0241,0.0311,0.0343,0.0366,0.045,0.0484,0.0554,0.0611,0.0658,0.0695,0.0736,0.0752,0.0762,0.0781,0.0773,0.0839,0.0776,0.078,0.0782,0.0831,0.0984,0.1006,0.0773,0.0773,0.0773,0,0,0.0198,0.0236,0.026,0.0337,0.0388,0.043,0.0486,0.0541,0.0593,0.063,0.0711,0.0739,0.0759,0.0782,0.0795,0.0787,0.0865,0.0789,0.079,0.0839,0.0993,0.1015,0.1036,0.0777,0.0776,0.0776,0,0,0.0164,0.0233,0.0251,0.0299,0.0371,0.0426,0.0448,0.0538,0.0603,0.0661,0.0712,0.0758,0.0776,0.0807,0.0814,0.0845,0.0883,0.0849,0.0893,0.1039,0.106,0.1079,0.1103,0.1125,0.0844,0.0844,0.0844,0,0.0162,0.0204,0.0261,0.0286,0.0333,0.0425,0.0472,0.0522,0.0625,0.0676,0.0691,0.0797,0.0788,0.0836,0.0866,0.0844,0.0927,0.0854,0.1043,0.1064,0.1084,0.1106,0.1131,0.0843,0.0843,0.0843,0.0844,0,0.0152,0.0193,0.0192,0.0278,0.034,0.0381,0.0463,0.0541,0.0616,0.0677,0.0769,0.0795,0.0893,0.0858,0.0864,0.0992,0.0997,0.1026,0.1023,0.1105,0.1121,0.1148,0.0842,0.0842,0.0842,0.0843,0,0,0.0146,0.0184,0.0201,0.0243,0.035,0.0403,0.0478,0.0589,0.0672,0.0741,0.0858,0.0867,0.0947,0.097,0.0984,0.1075,0.122,0.113,0.1138,0.1136,0.1504,0.1296,0.1304,0.132,0.1326,0.1332,0.1422,0,0.0145,0.0169,0.022,0.0293,0.0319,0.0438,0.0514,0.0627,0.0719,0.0844,0.0886,0.0994,0.0966,0.1044,0.1134,0.1198,0.1309,0.119,0.1444,0.1449,0.1243,0.1335,0.1353,0.1442,0.1448,0.1453,0.1456,0,0.0155,0.0164,0.0211,0.0317,0.0354,0.0434,0.0629,0.0711,0.0867,0.095,0.1074,0.1146,0.1249,0.1264,0.1432,0.1379,0.1491,0.1525,0.1531,0.1391,0.1295,0.1372,0.1505,0.1501,0.1498,0.1494,0.1491,0,0.0133,0.019,0.0231,0.0261,0.0375,0.0469,0.0588,0.0754,0.0869,0.1063,0.1186,0.13,0.1405,0.155,0.1588,0.1587,0.177,0.1767,0.1678,0.1658,0.1831,0.1811,0.2015,0.2015,0.2015,0.2014,0.2014,0,0.013,0.0161,0.0224,0.0242,0.0354,0.0473,0.0649,0.0773,0.0991,0.1101,0.1276,0.1375,0.1523,0.1613,0.1665,0.1689,0.1845,0.1718,0.1707,0.1795,0.1772,0.1843,0.1822,0.2018,0.2017,0.2016,0.2016,0,0.0097,0.0126,0.0147,0.0261,0.033,0.0421,0.0697,0.0816,0.1034,0.1201,0.1292,0.1493,0.158,0.1653,0.1816,0.176,0.1809,0.1823,0.183,0.1812,0.1581,0.1557,0.1735,0.173,0.1725,0.1721,0.1717,0,0.0076,0.0073,0.0148,0.0193,0.0255,0.0424,0.0557,0.0813,0.0918,0.1204,0.1253,0.1463,0.1547,0.1612,0.1667,0.1729,0.1755,0.1747,0.1754,0.16,0.1572,0.1556,0.1539,0.171,0.1708,0.1707,0.1706,0,0.0022,0.0037,0.0058,0.0129,0.0247,0.0376,0.056,0.0664,0.0907,0.1102,0.1265,0.1378,0.1468,0.1523,0.1593,0.163,0.17,0.1698,0.171,0.1716,0.1571,0.1544,0.1533,0.1689,0.1692,0.1693,0.1694,0,-0.0019,-0.0022,0.0006,0.0086,0.0203,0.0309,0.0423,0.0594,0.0772,0.1078,0.1074,0.1292,0.1425,0.1471,0.1488,0.152,0.1539,0.151,0.1532,0.1552,0.144,0.1225,0.1264,0,0,0,0,0,-0.0046,-0.0032,-0.0004,0.0066,0.0167,0.0246,0.0419,0.0524,0.0731,0.0834,0.0992,0.108,0.1211,0.1293,0.1301,0.1341,0.1482,0.1331,0.1444,0.1596,0.1615,0.1494,0,0,0,0,0,0,-0.006,-0.0043,-0.0036,0.0039,0.0098,0.0214,0.0323,0.0441,0.0522,0.0736,0.0838,0.0982,0.1132,0.1219,0.1278,0.1292,0.1332,0.1444,0.144,0.1585,0.1603,0.1618,0.1501,0,0,0,0,0]},{"header":{"parameterUnit":"m.s-1","parameterCategory":2,"la1":30.2991,"la2":30.254,"lo1":-89.0895,"lo2":-89.0444,"dy":0.0017,"dx":0.0017,"nx":28,"ny":28,"refTime":"2025-05-21T09:00:00:Z","depth":"4","parameterNumber":3,"parameterNumberName":"V-component_of_CURRENTS"},"data":[0,0,0,0,0,0,0,0,0,0,0,0,0,0,0,0,0,0,0,0,0,0,0,0,0,0,0,0,0,0,0,0,0,0,0,0,0,0,0,0,0,0,0,0,0,0,0,0,0,0,0,0,0,0,0,0,0,0,0.0255,0.0255,0,0.0201,0.02,0.02,0.0039,0.0035,0.0032,0.0029,-0.0279,-0.0284,-0.0289,0,0,0,0,0,0,0,0,0,0,0,0,0,0.0343,0.0342,0.0255,0.0255,0.0254,0.0201,0.02,0.0199,0.0039,0.0035,0.0031,0.0027,-0.0278,-0.0283,-0.029,0,0,0,0,0,0,0,0,0,0,0,0,0,0.0297,0.0341,0.0255,0.0169,0.0161,0.0201,0.02,0.0199,0.004,0.0035,0.003,0.0025,-0.0276,-0.0283,-0.029,-0.0235,0,0,-0.0313,-0.0317,0,0,0,0,0,0,0,0,0.03,0.0294,0.0182,0.0175,0.0166,0.0123,0.0118,0.0042,0.0042,0.0085,0.0029,0.0023,-0.0164,-0.0181,-0.0178,-0.0249,-0.0262,-0.0314,-0.0319,-0.0322,-0.0324,0,0,0,0,0,0,0,0.0303,0.0296,0.0232,0.0182,0.0172,0.0175,0.0162,0.0105,-0.0016,0.0081,0.0069,0.0067,-0.0171,-0.017,-0.0187,-0.0267,-0.0314,-0.0321,-0.0325,-0.0328,-0.0515,-0.0515,0,0,0,0,0,0,0.0312,0.0299,0.0234,0.0231,0.0223,0.0177,0.0162,0.0141,-0.001,-0.0036,0.0071,0.006,-0.0154,-0.0178,-0.0199,-0.03,-0.0322,-0.0329,-0.0333,-0.0514,-0.0515,-0.0515,0,0,0,0,0,0,0.0314,0.0306,0.0236,0.0266,0.0257,0.018,0.0158,0.0142,0.0115,-0.0014,-0.0046,0.0057,-0.0159,-0.0188,-0.0295,-0.0308,-0.0332,-0.0339,-0.0514,-0.0515,-0.0515,-0.0401,0,0,0,0,0,0,0.0316,0.0307,0.0316,0.0266,0.0256,0.025,0.0163,0.0145,0.0124,0.0107,-0.0036,-0.0068,-0.0166,-0.0282,-0.0302,-0.0319,-0.0345,-0.0513,-0.0514,-0.0515,-0.0405,-0.0398,-0.0393,0,0,0,0,0,0.0319,0.0332,0.0316,0.031,0.0263,0.0251,0.0247,0.0175,0.0128,0.013,0.0008,-0.0065,-0.0303,-0.0288,-0.0311,-0.033,-0.0513,-0.0514,-0.0515,-0.0407,-0.0399,-0.0393,0,0,0,0,0,0,0.0358,0.0316,0.0297,0.0292,0.0276,0.0224,0.0236,0.019,0.011,0.0075,-0.0059,-0.0098,-0.0196,-0.0269,-0.025,-0.0389,-0.0423,-0.0428,-0.0333,-0.0327,-0.0321,-0.0328,-0.0351,0,0,0,0,0,0.0385,0.0384,0.0346,0.0346,0.0349,0.0303,0.0297,0.0243,0.0165,0.0126,0.0019,-0.0102,-0.0202,-0.0273,-0.036,-0.0421,-0.045,-0.0454,-0.0448,-0.0442,-0.0465,-0.0463,-0.0457,-0.0519,-0.0519,-0.0519,0,0,0.0401,0.038,0.0379,0.0358,0.0347,0.0342,0.0284,0.0272,0.0232,0.0105,0.0018,-0.0072,-0.021,-0.0298,-0.0349,-0.0374,-0.0439,-0.0443,-0.0437,-0.0464,-0.0463,-0.0456,-0.0451,-0.0519,-0.0519,-0.0519,0,0,0.042,0.0422,0.0424,0.0427,0.0412,0.0384,0.0382,0.0328,0.0271,0.0196,0.0083,-0.0023,-0.0159,-0.027,-0.0343,-0.0351,-0.0394,-0.0372,-0.0364,-0.0359,-0.0353,-0.0348,-0.0361,-0.0358,-0.0383,-0.0383,-0.0383,0,0.0444,0.0435,0.0428,0.0436,0.0439,0.0402,0.04,0.0361,0.0262,0.0204,0.0163,-0.0056,-0.0157,-0.0293,-0.0308,-0.034,-0.0336,-0.0373,-0.0346,-0.0343,-0.034,-0.0354,-0.0353,-0.0377,-0.0378,-0.0379,-0.0379,0,0.0451,0.0466,0.048,0.0469,0.0471,0.0479,0.0428,0.0394,0.0325,0.025,0.0116,-0.0012,-0.0155,-0.0192,-0.0262,-0.031,-0.0312,-0.0317,-0.0352,-0.0326,-0.0344,-0.0344,-0.037,-0.0372,-0.0373,-0.0375,0,0,0.0457,0.0477,0.0489,0.05,0.0493,0.0491,0.0447,0.0381,0.033,0.0222,0.0133,-0.0035,-0.0099,-0.0186,-0.027,-0.0289,-0.0257,-0.0288,-0.0291,-0.028,-0.0238,-0.0243,-0.0244,-0.0226,-0.0226,-0.0226,-0.0252,0,0.047,0.0498,0.0491,0.0518,0.0537,0.0506,0.0466,0.0395,0.0317,0.0232,0.0083,-0.0013,-0.0096,-0.0143,-0.0184,-0.0267,-0.0255,-0.025,-0.0288,-0.0291,-0.0278,-0.0244,-0.0225,-0.0253,-0.0253,-0.0253,-0.0253,0,0.047,0.0502,0.054,0.0542,0.0545,0.0546,0.0493,0.0445,0.032,0.0256,0.0129,0.0039,-0.0093,-0.0094,-0.0229,-0.0211,-0.0204,-0.0238,-0.0239,-0.0292,-0.0296,-0.0294,-0.0255,-0.0255,-0.0254,-0.0254,-0.0254,0,0.0474,0.0521,0.0559,0.0577,0.0582,0.0571,0.054,0.0443,0.0419,0.0293,0.0275,0.0081,0.002,-0.005,-0.0164,-0.0166,-0.025,-0.0261,-0.0254,-0.0255,-0.0292,-0.0298,-0.0245,-0.0245,-0.0245,-0.0245,-0.0245,0,0.0476,0.0505,0.0584,0.0609,0.0661,0.0611,0.0603,0.0548,0.0477,0.0422,0.0306,0.0237,0.0054,-0.0037,-0.013,-0.023,-0.0222,-0.0258,-0.0259,-0.0245,-0.0244,-0.0292,-0.0297,-0.0246,-0.0246,-0.0246,-0.0246,0,0.0452,0.0506,0.0572,0.0631,0.0672,0.0696,0.0714,0.0701,0.0622,0.0564,0.0549,0.0383,0.0224,0.007,-0.0068,-0.0165,-0.0263,-0.0249,-0.0237,-0.0237,-0.028,-0.0279,-0.0291,-0.0291,-0.0292,-0.0292,-0.0292,0,0.0429,0.0474,0.0626,0.073,0.0774,0.0823,0.0867,0.0801,0.0751,0.0618,0.0575,0.0466,0.0327,0.012,-0.006,-0.0227,-0.0213,-0.026,-0.0274,-0.0283,-0.0283,-0.0282,-0.0281,-0.0292,-0.0292,-0.0292,-0.0293,0,0.0409,0.0484,0.0553,0.0759,0.0877,0.0971,0.0966,0.0942,0.0799,0.0801,0.0626,0.0492,0.0329,0.0106,0.0021,-0.011,-0.0274,-0.0263,-0.0263,-0.0277,-0.0285,-0.0285,-0.0283,-0.0293,-0.0293,-0.0293,-0.0293,0,0.0411,0.0467,0.0588,0.0775,0.0963,0.103,0.1007,0.0934,0.0891,0.0708,0.0645,0.0472,0.036,0.0171,0.0042,-0.0063,-0.0096,-0.0137,-0.0145,-0.0145,-0.0109,-0.0097,-0.0048,0,0,0,0,0,0.0416,0.0475,0.0609,0.0769,0.0954,0.1034,0.106,0.0988,0.0856,0.0774,0.0697,0.0541,0.0324,0.0211,0.0114,0.0016,-0.0132,-0.0107,-0.0186,-0.0298,-0.0297,-0.0281,0,0,0,0,0,0,0.0421,0.0511,0.0568,0.0758,0.0871,0.0987,0.1007,0.09,0.0794,0.0692,0.0597,0.0537,0.0347,0.042,0.013,0.0086,0.002,-0.0199,-0.0202,-0.0299,-0.0298,-0.0297,-0.028,0,0,0,0,0]}]]